Menu

In Person Flight Instructor Refresher Courses

Air Safety Institute Logo

Welcome

Flight Instructor Refresher Course

The AOPA Air Safety Institute In-Person Flight Instructor Refresher Course gives you the opportunity to renew your flight instructor certificate together with other flight instructors in your area. The two day course is led by expert presenters who are knowledgeable and engaging. Not only will you refresh your knowledge and pick up some new information, but you will also be able to network with other local professional pilots.

Location Start Time End Time State Latitude Longitude cssIndex Topic cssIndex
Hollywood, FL 05-05-2018 7:30 AM 05-06-2018 5:00 PM Learn More Florida 26.033572000000000 -80.166006000000000 1 mtgFlightInstructorRefresherCourse FIRC_FL_180505
Conroe, TX 05-05-2018 7:30 AM 05-06-2018 5:00 PM Learn More Texas 30.340300000000000 -95.418900000000000 1 mtgFlightInstructorRefresherCourse FIRC_TX_180505
Albany, NY 05-05-2018 7:30 AM 05-06-2018 5:00 PM Learn More New York 42.647246000000000 -73.750361000000000 1 mtgFlightInstructorRefresherCourse FIRC_NY_180505
Sacramento, CA 05-19-2018 7:30 AM 05-20-2018 5:00 PM Learn More California 38.663058000000000 -121.355317000000000 1 mtgFlightInstructorRefresherCourse FIRC_CA_180519
Columbus, OH 06-02-2018 7:30 AM 06-03-2018 5:00 PM Learn More Ohio 40.099986000000000 -82.987384000000000 1 mtgFlightInstructorRefresherCourse FIRC_OH_180602
Santa Clara, CA 06-09-2018 7:30 AM 06-10-2018 5:00 PM Learn More California 37.382500000000000 -121.979300000000000 1 mtgFlightInstructorRefresherCourse FIRC_CA_180609
Tempe, AZ 06-09-2018 7:30 AM 06-10-2018 5:00 PM Learn More Arizona 33.406821000000000 -111.960905000000000 1 mtgFlightInstructorRefresherCourse FIRC_AZ_180609
Lake Mary, FL 06-23-2018 7:30 AM 06-24-2018 5:00 PM Learn More Florida 28.758404000000000 -81.360415000000000 1 mtgFlightInstructorRefresherCourse FIRC_FL_180623
Jacksonville, FL 07-14-2018 7:30 AM 07-15-2018 5:00 PM Learn More Florida 30.488858000000000 -81.679281000000000 1 mtgFlightInstructorRefresherCourse FIRC_FL_180714
Frederick, MD Special Aviation Location 07-14-2018 7:30 AM 07-15-2018 5:00 PM Learn More Maryland 39.418320000000001 -77.336160000000007 1 mtgFlightInstructorRefresherCourse FIRC_MD_180714
Reno, NV 08-04-2018 7:30 AM 08-05-2018 5:00 PM Learn More Nevada 39.530088000000000 -119.814463000000000 1 mtgFlightInstructorRefresherCourse FIRC_NV_180804
Atlanta, GA 08-18-2018 7:30 AM 08-19-2018 5:00 PM Learn More Georgia 33.659125000000000 -84.437489000000000 1 mtgFlightInstructorRefresherCourse FIRC_GA_180818
Fort Worth, TX 08-25-2018 7:30 AM 08-26-2018 5:00 PM Learn More Texas 32.823115000000000 -97.056111000000000 1 mtgFlightInstructorRefresherCourse FIRC_TX_180825
Tempe, AZ 09-15-2018 7:30 AM 09-16-2018 5:00 PM Learn More Arizona 33.411416000000000 -111.969673000000000 1 mtgFlightInstructorRefresherCourse FIRC_AZ_180915
Sandston, VA 09-15-2018 7:30 AM 09-16-2018 5:00 PM Learn More Virginia 37.524746000000000 -77.325863000000000 1 mtgFlightInstructorRefresherCourse FIRC_VA_180915
Colorado Springs, CO 09-22-2018 7:30 AM 09-23-2018 5:00 PM Learn More Colorado 38.808426000000000 -104.727596000000000 1 mtgFlightInstructorRefresherCourse FIRC_CO_180922
Santa Clara, CA 10-06-2018 7:30 AM 10-07-2018 5:00 PM Learn More California 37.382500000000000 -121.979300000000000 1 mtgFlightInstructorRefresherCourse FIRC_CA_181006
Indianapolis, IN 10-13-2018 7:30 AM 10-14-2018 5:00 PM Learn More Indiana 39.729767000000000 -86.269647000000000 1 mtgFlightInstructorRefresherCourse FIRC_IN_181013
Dulles, VA 10-13-2018 7:30 AM 10-14-2018 5:00 PM Learn More Virginia 38.985093000000000 -77.429156000000000 1 mtgFlightInstructorRefresherCourse FIRC_VA_181013
Columbia, SC 10-20-2018 7:30 AM 10-21-2018 5:00 PM Learn More South Carolina 34.014993000000000 -81.076972000000000 1 mtgFlightInstructorRefresherCourse FIRC_SC_181020
Windsor Locks, CT 10-20-2018 7:30 AM 10-21-2018 5:00 PM Learn More Connecticut 41.916917000000000 -72.673685000000000 1 mtgFlightInstructorRefresherCourse FIRC_CT_181020

Questions? Contact us at [email protected] or 800/USA-AOPA (800/872-2672)
Monday - Friday, 8:30 am - 6:00 pm ET